Flag for Canada Weather past 2 weeks in Yorkton, Saskatchewan, Canada

Now
57 °F

Fog.


Feels Like: 56 °F
Forecast: 53 / 67 °F
Wind: 6 mph from Northwest

Location: Yorkton

Current Time: Aug 31, 2014 at 5:05:54 AM

Latest Report: Aug 31, 2014 at 4:00 AM


Visibility: 3 mi

Pressure: 29.65 "Hg

Humidity: 100%

Dew point: 57 °F

Location of YorktonLocation

Historic Weather in Yorkton — Graph

°F

Yorkton temperature yesterday

Maximum temperature yesterday: 64 °F (at 11:00 AM)
Minimum temperature yesterday: 46 °F (at 4:00 AM)
Average temperature yesterday: 57 °F

Past Weeks' High & Low Weather Summary

 TemperatureHumidityPressure
High82 °F (Aug 19, 4:00 PM)100% (Aug 16, 5:03 AM)30.30 "Hg (Aug 16, 5:03 AM)
Low37 °F (Aug 26, 6:00 AM)37% (Aug 19, 2:00 PM)29.63 "Hg (Aug 20, 12:00 PM)
Average60 °F80%29.93 "Hg
* Reported Aug 16 4:00 AM — Aug 31 4:00 AM, Yorkton, Weather by CustomWeather, © 2014

Note: Actual official high and low records may vary slightly from our data, if they occured in-between our weather recording intervals... More about our weather records

Advertising

Yorkton weather history for previous 24 hours

 ConditionsComfort  
Time TempWeatherWind HumidityBarometerVisibility
4:00 AM
Aug 31
57 °FFog.6 mph100%29.65 "Hg3 mi
3:52 AM57 °FFog.5 mph100%29.65 "Hg3 mi
3:00 AM57 °FLow clouds.5 mph100%29.66 "Hg9 mi
2:00 AM57 °FFog.5 mph100%29.66 "Hg1 mi
1:58 AM57 °FFog.5 mph100%29.66 "Hg2 mi
1:00 AM57 °FLight rain. Fog.6 mph100%29.69 "Hg3 mi
12:00 AM57 °FMostly cloudy.6 mph100%29.68 "Hg9 mi
11:00 PM
Aug 30
59 °FPassing clouds.5 mph94%29.67 "Hg9 mi
10:00 PM59 °FPartly cloudy.8 mph94%29.68 "Hg9 mi
9:57 PM59 °FPartly cloudy.8 mph94%29.69 "Hg9 mi
9:00 PM61 °FMostly cloudy.12 mph94%29.70 "Hg9 mi
8:56 PM61 °FMostly cloudy.9 mph94%29.70 "Hg9 mi
8:00 PM59 °FLight rain. Overcast.10 mph94%29.68 "Hg9 mi
7:00 PM61 °FLight rain. More clouds than sun.10 mph88%29.70 "Hg9 mi
6:00 PM63 °FLight rain. Mostly cloudy.10 mph77%29.71 "Hg9 mi
5:00 PM64 °FMostly cloudy.12 mph68%29.71 "Hg9 mi
4:00 PM64 °FOvercast.12 mph68%29.72 "Hg9 mi
3:00 PM63 °FMore clouds than sun.13 mph68%29.73 "Hg9 mi
2:00 PM64 °FBroken clouds.15 mph64%29.74 "Hg9 mi
1:00 PM63 °FLight rain. Partly sunny.9 mph77%29.78 "Hg9 mi
12:00 PM64 °FSunny.9 mph68%29.79 "Hg9 mi
11:00 AM64 °FSunny.18 mph60%29.80 "Hg9 mi
10:00 AM63 °FSunny.13 mph68%29.82 "Hg9 mi
9:00 AM59 °FSunny.13 mph72%29.85 "Hg9 mi
8:00 AM54 °FSunny.10 mph82%29.87 "Hg9 mi
7:00 AM50 °FSunny.9 mph88%29.88 "Hg9 mi
6:00 AM46 °FSunny.9 mph93%29.89 "Hg9 mi
5:00 AM46 °FClear.8 mph93%29.92 "Hg9 mi
Weather by CustomWeather, © 2014

See weather overviewHow to use our weather pages